Skip Page Navigation
NASA JPL Caltech
NASA Logo - Jet Propulsion Laboratory + View the NASA Portal
+ Center for Near-Earth Object Studies
JPL Home Earth Solar System Stars & Galaxies Technology
JPL Solar System Dynamics
BODIES ORBITS EPHEMERIDES TOOLS PHYSICAL DATA DISCOVERY FAQ SITE MAP

Significant website upgrade scheduled for September 27. More details available here.

JPL Small-Body Database Browser
Search: [ help ]  
(2020 LV)
Classification: Aten [NEO]          SPK-ID: 54017418
Ephemeris | Orbit Diagram | Orbital Elements | Mission Design | Physical Parameters | Close-Approach Data ]

[ hide orbit diagram ]

For accurate long-term ephemerides, please instead use our Horizons system.This orbit viewer was implemented using two-body methods, and hence should not be used for determining accurate long-term trajectories (over several years or decades) or planetary encounter circumstances.


Orbital Elements at Epoch 2459396.5 (2021-Jul-01.0) TDB
Reference: JPL 11 (heliocentric ecliptic J2000)
 Element Value Uncertainty (1-sigma)   Units 
e .1532564078615163 2.2893e-06  
a .9150036098539013 1.8794e-06 au
q .774773443427372 3.6839e-06 au
i 5.507442071594392 6.4393e-05 deg
node 91.88590344456435 2.0505e-05 deg
peri 319.0908956312359 0.0004155 deg
M 294.1484121735505 0.0010108 deg
tp 2459454.978522114892
(2021-Aug-28.47852211)
0.0010774 TDB
period 319.6926400141462
0.88
0.00098495
2.697e-06
d
yr
n 1.126081601328295 3.4694e-06 deg/d
Q 1.055233776280431 2.1674e-06 au
  Orbit Determination Parameters
   # obs. used (total)      40  
   # delay obs. used      2  
   # Doppler obs. used      1  
   data-arc span      9 days  
   first obs. used      2020-06-14  
   last obs. used      2020-06-23  
   planetary ephem.      DE441  
   SB-pert. ephem.      SB441-N16  
   condition code      4  
   norm. resid. RMS      .34878  
   source      ORB  
   producer      Otto Matic  
   solution date      2021-Apr-15 22:35:57  

Additional Information
 Earth MOID = .00365382 au 
 Jupiter MOID = 4.1348 au 
 T_jup = 6.512 
[ show covariance matrix ]

Ephemeris | Orbit Diagram | Orbital Elements | Mission Design | Physical Parameters | Close-Approach Data ]

Physical Parameter Table
Parameter Symbol Value Units Sigma Reference Notes
absolute magnitude H 25.3   .27257 E2020M52 autocmod 2.8

[ hide close-approach data ]
Close-Approach Data   ...sorted by Date/Time (TDB)
Date/Time (TDB) Time Uncertainty
(days_HH:MM)
Body Nominal Distance (au) Minimum Distance (au) Maximum Distance (au) V-relative (km/s) V-infinity (km/s) JD (TDB) Time Uncertainty (minutes) Semi-major axis (km) Semi-minor axis (km) range-LOV angle (deg) N-sigma BP Orbit Ref. Reference Modified
1908-Mar-25 21:59 5_09:28 Earth 0.45016161048183 0.413703478759511 0.48718829482567 17.0797160623904 17.0793695109883 2418026.416046599 7767.79109880134 1998394.01071659 56.4463473663465 -23.4537497246483 393259.900138924 T 11 CATAB v2.0g-lin.ifort 2021-Apr-15 22:35:59 2021-Apr-15 22:36
1909-Jun-23 14:15 2_03:56 Earth 0.0317066233095354 0.0053199994068918 0.171015666429594 5.22839817137109 5.21230050963258 2418481.094033352 3115.91188527829 6964645.328942 5.38353805902489 -9.86192433471816 134421.776956794 T 11 CATAB v2.0g-lin.ifort 2021-Apr-15 22:35:59 2021-Apr-15 22:36
1916-Mar-22 11:30 6_16:49 Earth 0.351854778903687 0.224154394835596 0.483161492405624 14.0176125868171 14.0170723511933 2420944.979067845 9649.26702156444 6698271.43371766 49.7525598025402 -14.3071359331409 205000.157222707 T 11 CATAB v2.0g-lin.ifort 2021-Apr-15 22:35:59 2021-Apr-15 22:36
1917-Jun-22 00:39 3_08:06 Earth 0.150988768423711 0.0249074243991194 0.277038171141671 8.53703071951512 8.53496337213518 2421401.527128593 4805.50604557256 6285413.92145876 9.89906209097628 -1.15126728016557 33748.7279484942 T 11 CATAB v2.0g-lin.ifort 2021-Apr-15 22:35:59 2021-Apr-15 22:36
1924-Mar-16 05:38 5_18:03 Earth 0.223604144815756 0.124982737276289 0.334501808265163 9.93320321972391 9.93200352868865 2423860.734546497 8283.27582616529 5848857.88157781 49.6797263878053 -23.4351217025889 199344.378305904 T 11 CATAB v2.0g-lin.ifort 2021-Apr-15 22:35:59 2021-Apr-15 22:36
1925-Jun-17 14:15 4_17:55 Earth 0.285250633956279 0.166314692514298 0.404200587054084 12.4670132921194 12.4662640255311 2424319.093874108 6834.63649549934 5932041.65535613 13.4252989548654 -1.13894212980248 48201.6851508325 T 11 CATAB v2.0g-lin.ifort 2021-Apr-15 22:35:59 2021-Apr-15 22:36
1932-Mar-09 04:53 6_17:15 Earth 0.113003324237049 0.0906528794866405 0.201750848396904 5.82311155356678 5.81906097460975 2426775.703693377 9674.773788952 5624282.86061664 49.5026461449684 -53.4023011902431 206082.301504839 T 11 CATAB v2.0g-lin.ifort 2021-Apr-15 22:35:59 2021-Apr-15 22:36
1933-Jun-12 09:52 4_09:16 Earth 0.416027362644438 0.311049349978943 0.52103675477895 16.3470540026163 16.3466622100711 2427235.910974928 6315.55197958688 5238710.75630384 16.6984624292632 -1.96860873881447 103371.962502033 T 11 CATAB v2.0g-lin.ifort 2021-Apr-15 22:35:59 2021-Apr-15 22:36
1948-Jan-22 08:48 7_15:30 Earth 0.133023942547488 0.125492971790335 0.143314923690626 4.22231827841807 4.21757175367404 2432572.866760117 11010.2832373812 1056478.84608257 16.5379130130817 64.9198873323652 283649.091304495 T 11 CATAB v2.0g-lin.ifort 2021-Apr-15 22:35:59 2021-Apr-15 22:36
1950-Jul-01 08:44 2_12:50 Venus 0.108710933906677 0.108310243582159 0.128766326206704 0.378196821287861 0.321063878503956 2433463.863559340 3650.05859952938 3340359.00805488 93.5811068662621 87.4008868237842 83304.9458540668 T 11 CATAB v2.0g-lin.ifort 2021-Apr-15 22:35:59 2021-Apr-15 22:36
1956-Jan-13 10:03 9_23:56 Earth 0.143966265438748 0.130978968091971 0.160745736620788 4.59813136245038 4.59410455882065 2435485.918437391 14396.0336070699 1385083.4681591 9.25729195680419 57.1838693148228 404962.970179365 T 11 CATAB v2.0g-lin.ifort 2021-Apr-15 22:35:59 2021-Apr-15 22:36
1972-Feb-26 12:41 8_13:28 Earth 0.0929240488341977 0.091416858456883 0.108322848432086 3.56288555577303 3.55482854975123 2441374.028125520 12328.1152509079 2068440.25546785 40.803997578965 79.5740213842763 165543.885024231 T 11 CATAB v2.0g-lin.ifort 2021-Apr-15 22:35:59 2021-Apr-15 22:36
1973-Jun-09 18:42 1_10:28 Earth 0.467598534134756 0.433486517781534 0.501712674125343 17.8937310285694 17.8934125778932 2441843.279369590 2068.29009564032 1701806.92734039 15.2655404085549 -1.72332522602139 112902.253016034 T 11 CATAB v2.0g-lin.ifort 2021-Apr-15 22:35:59 2021-Apr-15 22:36
1976-Jun-26 03:28 8_09:08 Venus 0.141183445207377 0.118263578563009 0.165492533106106 2.10082323138478 2.09348900335565 2442955.644364585 12068.4036890465 1370039.0328166 58.7980441759488 31.7817566074217 48077.5880573325 T 11 CATAB v2.0g-lin.ifort 2021-Apr-15 22:35:59 2021-Apr-15 22:36
1980-Mar-07 11:01 2_01:29 Earth 0.125412535245528 0.105096291483022 0.150206026029005 6.42342478514386 6.42011639572908 2444305.958890290 2968.60841903841 1635340.62607914 48.8673563622704 -45.6171526028925 204584.857639422 T 11 CATAB v2.0g-lin.ifort 2021-Apr-15 22:35:59 2021-Apr-15 22:36
1980-Oct-01 23:46 7_21:33 Earth 0.207706825327629 0.203349021717813 0.212294041758212 5.26073048806677 5.25829146322753 2444514.490517306 11373.4273530478 410264.388654588 32.1988775234904 57.1448949658013 253157.997985418 T 11 CATAB v2.0g-lin.ifort 2021-Apr-15 22:35:59 2021-Apr-15 22:36
1981-Jun-14 02:39 1_03:04 Earth 0.363922954620661 0.334963655442069 0.392882876729799 14.7775374090487 14.7770419495942 2444769.610577236 1623.65703997232 1444293.86671744 13.4846429988148 -1.09887351914259 60666.1085095467 T 11 CATAB v2.0g-lin.ifort 2021-Apr-15 22:35:59 2021-Apr-15 22:36
1984-May-22 17:54 5_09:47 Venus 0.0730995591777034 0.0728515728706985 0.0765757471893144 1.04124780533322 1.01231596973957 2445843.245770291 7786.76103461615 888333.776151925 24.3075104974378 -84.8966948411067 124040.819891202 T 11 CATAB v2.0g-lin.ifort 2021-Apr-15 22:35:59 2021-Apr-15 22:36
1988-Mar-14 11:38 1_08:03 Earth 0.236675781097701 0.21311192465662 0.260617514308593 10.3651084978108 10.3640223037059 2447234.984663652 1923.22504352069 1274925.68352133 49.0834346468673 -21.6220249183724 198530.097476269 T 11 CATAB v2.0g-lin.ifort 2021-Apr-15 22:35:59 2021-Apr-15 22:36
1988-Nov-01 06:38 5_14:30 Earth 0.212389052678634 0.211112475145051 0.213692112071131 6.15445029629767 6.15241155134314 2447466.776709952 8070.12959647304 134639.321584237 34.5353958467099 -61.423863390641 610635.796212532 T 11 CATAB v2.0g-lin.ifort 2021-Apr-15 22:35:59 2021-Apr-15 22:36
1989-Jun-19 06:31 23:11 Earth 0.235117029991597 0.209939624725771 0.260293875692641 10.9698664205241 10.9688333085829 2447696.771600537 1390.99492894451 1255351.14271958 11.2904861730231 -0.314442999704251 12183.1541266338 T 11 CATAB v2.0g-lin.ifort 2021-Apr-15 22:35:59 2021-Apr-15 22:36
1996-Mar-21 08:57 1_03:43 Earth 0.368308587041247 0.347780050324805 0.388899107491491 14.5607789454626 14.5602820977287 2450163.872990782 1662.49651135174 1052543.95152899 49.2757322662325 -13.0762156864482 199395.791289322 T 11 CATAB v2.0g-lin.ifort 2021-Apr-15 22:35:59 2021-Apr-15 22:36
1996-Dec-01 00:37 4_14:23 Earth 0.19388784349407 0.189667769252231 0.198154234430057 6.08217805574274 6.07991818636945 2450418.525602858 6622.92460728188 259058.974838989 34.6995539580714 35.2682343586541 349807.233432051 T 11 CATAB v2.0g-lin.ifort 2021-Apr-15 22:35:59 2021-Apr-15 22:36
1997-Jun-23 07:08 09:32 Earth 0.099310835133119 0.0794037523769351 0.119214448462906 7.07456131740222 7.07076788229318 2450622.797138272 572.306575811615 992167.19413871 7.88633046592591 -0.114407911735351 1423.19843650421 T 11 CATAB v2.0g-lin.ifort 2021-Apr-15 22:35:59 2021-Apr-15 22:36
2002-Apr-21 19:00 2_06:02 Venus 0.122307233416293 0.117084601759592 0.129244820745255 1.52594240111991 1.51426237101009 2452386.291918734 3242.08256224687 786975.476766417 34.7400807916913 67.9455050190852 74950.6093531341 T 11 CATAB v2.0g-lin.ifort 2021-Apr-15 22:35:59 2021-Apr-15 22:36
